Tracking 19575 objects as of 20-Feb-2019
HD Live streaming from Space Station
objects crossing your sky now

SL-8 R/B

Track SL-8 R/B now!
10-day predictions


NORAD ID: 23774
Int'l Code: 1996-004B
Perigee: 950.3 km
Apogee: 1,016.6 km
Inclination: 83.0 °
Period: 104.6 minutes
Semi major axis: 7354 km
RCS: 7.3139 m2 (large)
Launch date: January 16, 1996
Source: Commonwealth of Independent States (former USSR) (CIS)
Launch site: PLESETSK MISSILE AND SPACE COMPLEX (PKMTR)

Note: This is a ROCKET BODY
aabbcc
Your satellite tracking list
Your tracking list is empty




NASA's NSSDC Master Catalog

Two Line Element Set (TLE):
1 23774U 96004B   19050.55700254 -.00000037  00000-0 -53240-4 0  9995
2 23774  82.9762 268.9132 0045050  75.4592 285.1556 13.76512891160121
Source of the keplerian elements: AFSPC